2018-094C (43712 NORAD) Tracking and Keplerian Element Data

This shows tracking and keplerian element data for the satellite.

Feedback or suggestion? Click here.




ElementValue
Catalog43712
Name2018-094C
Epoch Orbit313
Epoch Day344.54559021
Epoch Year2018
RAAN349.151
Inclination97.4067
Eccentricity0.0013177
Argument of Perigee185.1132
Mean Anonmoly274.2494
Mean Motion15.23105103
Decay Rate6.16E-06
L11 43712U 18094C 18344.54559021 .00000616 00000-0 29070-4 0 9995
L22 43712 97.4067 349.1510 0013177 185.1132 274.2494 15.23105103 3135

Live tracking and technical data element details for 2018-094C (NORAD 43712). 2018-094C can be tracked NOW for your location showing map with azimuth and elevation plus other details from your city location.

Track the satellite on the map from your city or location and see movement details for azimuth, elevation, latitude, longitude, range, height, and movement on the map or in text.







IsCatalogInMostPopularTable: catalog: 43712, numindb: 12
Update: records affected: 1



GetName: 43712 2018-094C

Hit Count: updated at: Tue, 11 Dec 2018 02:30:39 GMT